Time,TemperatureF,DewpointF,PressureIn,WindDirection,WindDirectionDegrees,WindSpeedMPH,WindSpeedGustMPH,Humidity,HourlyPrecipIn,Conditions,Clouds,dailyrainin,SoftwareType,DateUTC
2013-03-07 00:02:00,38.2,35.5,30.13,East,84,5.0,13.0,90,0.00,,,0.64,Wunderground v.1.13,2013-03-07 08:02:00,
2013-03-07 00:12:00,38.2,35.5,30.13,East,83,5.0,5.0,90,0.00,,,0.64,Wunderground v.1.13,2013-03-07 08:12:00,
2013-03-07 00:17:00,38.2,35.5,30.12,East,82,5.0,5.0,90,0.00,,,0.00,Wunderground v.1.13,2013-03-07 08:17:00,
2013-03-07 00:27:00,38.0,35.3,30.12,East,82,4.0,13.0,90,0.00,,,0.00,Wunderground v.1.13,2013-03-07 08:27:00,
2013-03-07 00:37:00,37.9,35.2,30.12,East,82,5.0,13.0,90,0.00,,,0.00,Wunderground v.1.13,2013-03-07 08:37:00,
2013-03-07 00:42:00,38.0,35.3,30.12,ENE,78,5.0,13.0,90,0.00,,,0.00,Wunderground v.1.13,2013-03-07 08:42:00,
2013-03-07 00:52:00,38.0,35.3,30.12,ENE,78,5.0,5.0,90,0.00,,,0.00,Wunderground v.1.13,2013-03-07 08:52:00,
2013-03-07 00:57:00,38.0,35.3,30.12,ENE,78,5.0,13.0,90,0.00,,,0.00,Wunderground v.1.13,2013-03-07 08:57:00,
2013-03-07 01:02:00,38.0,35.0,30.12,ENE,78,5.0,13.0,89,0.00,,,0.00,Wunderground v.1.13,2013-03-07 09:02:00,
2013-03-07 01:07:00,38.0,35.0,30.12,ENE,78,4.0,4.0,89,0.00,,,0.00,Wunderground v.1.13,2013-03-07 09:07:00,
2013-03-07 01:17:00,37.8,34.8,30.13,ENE,78,2.0,3.0,89,0.00,,,0.00,Wunderground v.1.13,2013-03-07 09:17:00,
2013-03-07 01:22:00,37.6,34.7,30.12,ENE,78,2.0,2.0,89,0.00,,,0.00,Wunderground v.1.13,2013-03-07 09:22:00,
2013-03-07 01:32:00,37.5,34.6,30.12,ENE,78,1.0,1.0,89,0.00,,,0.00,Wunderground v.1.13,2013-03-07 09:32:00,
2013-03-07 01:37:00,37.3,34.4,30.13,ENE,78,1.0,1.0,89,0.00,,,0.00,Wunderground v.1.13,2013-03-07 09:37:00,
2013-03-07 01:42:00,37.3,34.4,30.13,ENE,78,1.0,1.0,89,0.00,,,0.00,Wunderground v.1.13,2013-03-07 09:42:00,
2013-03-07 01:52:00,37.2,34.3,30.13,ENE,78,3.0,8.0,89,0.00,,,0.00,Wunderground v.1.13,2013-03-07 09:52:00,
2013-03-07 01:57:00,37.0,34.1,30.13,ENE,78,4.0,4.0,89,0.00,,,0.00,Wunderground v.1.13,2013-03-07 09:57:00,
2013-03-07 02:07:00,36.9,34.0,30.12,ENE,78,2.0,8.0,89,0.00,,,0.00,Wunderground v.1.13,2013-03-07 10:07:00,
2013-03-07 02:17:00,36.8,33.9,30.11,ENE,78,3.0,3.0,89,0.00,,,0.00,Wunderground v.1.13,2013-03-07 10:17:00,
2013-03-07 02:27:00,36.5,33.6,30.11,ENE,78,3.0,8.0,89,0.00,,,0.00,Wunderground v.1.13,2013-03-07 10:27:00,
2013-03-07 02:32:00,36.5,33.6,30.11,ENE,78,4.0,4.0,89,0.00,,,0.00,Wunderground v.1.13,2013-03-07 10:32:00,
2013-03-07 02:42:00,36.6,33.4,30.10,ENE,78,1.0,1.0,88,0.00,,,0.00,Wunderground v.1.13,2013-03-07 10:42:00,
2013-03-07 02:52:00,36.8,33.0,30.10,ENE,78,1.0,8.0,86,0.00,,,0.00,Wunderground v.1.13,2013-03-07 10:52:00,
2013-03-07 02:57:00,36.8,33.0,30.09,ENE,78,2.0,8.0,86,0.00,,,0.00,Wunderground v.1.13,2013-03-07 10:57:00,
2013-03-07 03:07:00,36.9,33.1,30.09,ENE,78,3.0,8.0,86,0.00,,,0.00,Wunderground v.1.13,2013-03-07 11:07:00,
2013-03-07 03:12:00,36.9,33.4,30.09,ENE,78,3.0,8.0,87,0.00,,,0.00,Wunderground v.1.13,2013-03-07 11:12:00,
2013-03-07 03:22:00,36.8,33.6,30.09,ENE,78,3.0,3.0,88,0.00,,,0.00,Wunderground v.1.13,2013-03-07 11:22:00,
2013-03-07 03:32:00,36.6,33.1,30.09,ENE,78,1.0,8.0,87,0.00,,,0.00,Wunderground v.1.13,2013-03-07 11:32:00,
2013-03-07 03:42:00,36.8,33.0,30.09,ENE,78,4.0,4.0,86,0.00,,,0.00,Wunderground v.1.13,2013-03-07 11:42:00,
2013-03-07 03:52:00,36.8,33.0,30.08,ENE,78,2.0,2.0,86,0.00,,,0.00,Wunderground v.1.13,2013-03-07 11:52:00,
2013-03-07 04:02:00,36.8,33.0,30.08,ENE,76,0.0,8.0,86,0.00,,,0.00,Wunderground v.1.13,2013-03-07 12:02:00,
2013-03-07 04:12:00,36.9,32.5,30.08,ENE,75,1.0,8.0,84,0.00,,,0.00,Wunderground v.1.13,2013-03-07 12:12:00,
2013-03-07 04:22:00,37.2,32.2,30.08,ENE,75,1.0,1.0,82,0.00,,,0.00,Wunderground v.1.13,2013-03-07 12:22:00,
2013-03-07 04:32:00,36.9,31.9,30.09,ENE,75,0.0,8.0,82,0.00,,,0.00,Wunderground v.1.13,2013-03-07 12:32:00,
2013-03-07 04:42:00,36.8,32.4,30.09,ENE,75,1.0,8.0,84,0.00,,,0.00,Wunderground v.1.13,2013-03-07 12:42:00,
2013-03-07 04:52:00,36.6,32.2,30.09,ENE,75,1.0,1.0,84,0.00,,,0.00,Wunderground v.1.13,2013-03-07 12:52:00,
2013-03-07 04:57:00,36.5,32.4,30.09,ENE,75,0.0,8.0,85,0.00,,,0.00,Wunderground v.1.13,2013-03-07 12:57:00,
2013-03-07 05:07:00,36.3,32.2,30.09,ENE,75,0.0,8.0,85,0.00,,,0.00,Wunderground v.1.13,2013-03-07 13:07:00,
2013-03-07 05:17:00,36.3,31.9,30.10,ENE,75,0.0,8.0,84,0.00,,,0.00,Wunderground v.1.13,2013-03-07 13:17:00,
2013-03-07 05:27:00,36.8,33.3,30.09,ENE,75,0.0,8.0,87,0.00,,,0.00,Wunderground v.1.13,2013-03-07 13:27:00,
2013-03-07 05:32:00,37.0,33.2,30.09,ENE,75,0.0,8.0,86,0.00,,,0.00,Wunderground v.1.13,2013-03-07 13:32:00,
2013-03-07 05:37:00,37.3,33.5,30.09,ENE,75,0.0,8.0,86,0.00,,,0.00,Wunderground v.1.13,2013-03-07 13:37:00,
2013-03-07 05:47:00,37.0,32.0,30.09,ENE,75,0.0,8.0,82,0.00,,,0.00,Wunderground v.1.13,2013-03-07 13:47:00,
2013-03-07 05:52:00,36.8,31.8,30.09,ENE,75,1.0,8.0,82,0.00,,,0.00,Wunderground v.1.13,2013-03-07 13:52:00,
2013-03-07 06:02:00,36.6,31.9,30.09,ENE,75,1.0,8.0,83,0.00,,,0.00,Wunderground v.1.13,2013-03-07 14:02:00,
2013-03-07 06:12:00,36.5,31.5,30.09,ENE,75,0.0,8.0,82,0.00,,,0.00,Wunderground v.1.13,2013-03-07 14:12:00,
2013-03-07 06:22:00,36.3,31.6,30.09,ENE,75,1.0,8.0,83,0.00,,,0.00,Wunderground v.1.13,2013-03-07 14:22:00,
2013-03-07 06:27:00,36.0,31.6,30.10,East,84,3.0,8.0,84,0.00,,,0.00,Wunderground v.1.13,2013-03-07 14:27:00,
2013-03-07 06:37:00,35.6,31.5,30.10,East,79,2.0,2.0,85,0.00,,,0.00,Wunderground v.1.13,2013-03-07 14:37:00,
2013-03-07 06:42:00,35.6,31.5,30.10,East,79,0.0,8.0,85,0.00,,,0.00,Wunderground v.1.13,2013-03-07 14:42:00,
2013-03-07 06:57:00,36.6,31.9,30.09,East,79,2.0,8.0,83,0.00,,,0.00,Wunderground v.1.13,2013-03-07 14:57:00,
2013-03-07 07:07:00,37.2,31.9,30.09,East,79,3.0,8.0,81,0.00,,,0.00,Wunderground v.1.13,2013-03-07 15:07:00,
2013-03-07 07:12:00,37.3,31.7,30.09,East,79,2.0,8.0,80,0.00,,,0.00,Wunderground v.1.13,2013-03-07 15:12:00,
2013-03-07 07:22:00,37.6,32.0,30.09,East,79,1.0,8.0,80,0.00,,,0.00,Wunderground v.1.13,2013-03-07 15:22:00,
2013-03-07 07:27:00,37.8,32.2,30.10,East,79,1.0,8.0,80,0.00,,,0.00,Wunderground v.1.13,2013-03-07 15:27:00,
2013-03-07 07:37:00,37.9,32.0,30.09,East,79,0.0,8.0,79,0.00,,,0.00,Wunderground v.1.13,2013-03-07 15:37:00,
2013-03-07 07:42:00,38.0,32.1,30.10,East,79,0.0,8.0,79,0.00,,,0.00,Wunderground v.1.13,2013-03-07 15:42:00,
2013-03-07 07:52:00,38.6,32.3,30.10,East,79,0.0,8.0,78,0.00,,,0.00,Wunderground v.1.13,2013-03-07 15:52:00,
2013-03-07 08:02:00,39.2,32.3,30.09,East,79,0.0,8.0,76,0.00,,,0.00,Wunderground v.1.13,2013-03-07 16:02:00,
2013-03-07 08:07:00,39.3,33.3,30.10,East,79,1.0,8.0,79,0.00,,,0.00,Wunderground v.1.13,2013-03-07 16:07:00,
2013-03-07 08:12:00,39.3,32.4,30.10,East,79,3.0,3.0,76,0.00,,,0.00,Wunderground v.1.13,2013-03-07 16:12:00,
2013-03-07 08:27:00,41.2,34.2,30.09,East,79,2.0,8.0,76,0.00,,,0.00,Wunderground v.1.13,2013-03-07 16:27:00,
2013-03-07 08:37:00,41.8,34.1,30.08,East,79,1.0,8.0,74,0.00,,,0.00,Wunderground v.1.13,2013-03-07 16:37:00,
2013-03-07 08:47:00,42.8,34.4,30.08,East,79,2.0,8.0,72,0.00,,,0.00,Wunderground v.1.13,2013-03-07 16:47:00,
2013-03-07 08:52:00,43.9,37.2,30.08,East,79,2.0,8.0,77,0.00,,,0.00,Wunderground v.1.13,2013-03-07 16:52:00,
2013-03-07 08:57:00,44.6,35.4,30.07,East,79,2.0,8.0,70,0.00,,,0.00,Wunderground v.1.13,2013-03-07 16:57:00,
2013-03-07 09:07:00,45.2,34.5,30.07,East,79,3.0,8.0,66,0.00,,,0.00,Wunderground v.1.13,2013-03-07 17:07:00,
2013-03-07 09:17:00,46.2,36.6,30.06,East,79,2.0,8.0,69,0.00,,,0.00,Wunderground v.1.13,2013-03-07 17:17:00,
2013-03-07 09:27:00,46.5,34.6,30.06,East,79,3.0,8.0,63,0.00,,,0.00,Wunderground v.1.13,2013-03-07 17:27:00,
2013-03-07 09:37:00,47.6,36.4,30.06,East,79,1.0,8.0,65,0.00,,,0.00,Wunderground v.1.13,2013-03-07 17:37:00,
2013-03-07 09:42:00,46.7,34.4,30.06,East,79,1.0,1.0,62,0.00,,,0.00,Wunderground v.1.13,2013-03-07 17:42:00,
2013-03-07 09:52:00,47.7,36.5,30.06,SE,146,1.0,1.0,65,0.00,,,0.00,Wunderground v.1.13,2013-03-07 17:52:00,
2013-03-07 10:02:00,47.4,33.8,30.06,SSW,204,0.0,8.0,59,0.00,,,0.00,Wunderground v.1.13,2013-03-07 18:02:00,
2013-03-07 10:07:00,47.0,35.8,30.06,SE,132,1.0,1.0,65,0.00,,,0.00,Wunderground v.1.13,2013-03-07 18:07:00,
2013-03-07 10:17:00,47.1,33.9,30.06,SE,140,1.0,1.0,60,0.00,,,0.00,Wunderground v.1.13,2013-03-07 18:17:00,
2013-03-07 10:22:00,47.4,34.6,30.06,SSW,207,1.0,8.0,61,0.00,,,0.00,Wunderground v.1.13,2013-03-07 18:22:00,
2013-03-07 10:27:00,48.2,34.5,30.07,SW,217,1.0,8.0,59,0.00,,,0.00,Wunderground v.1.13,2013-03-07 18:27:00,
2013-03-07 10:36:00,48.3,35.0,30.07,SSE,159,1.0,1.0,60,0.00,,,0.00,Wunderground v.1.13,2013-03-07 18:36:00,
2013-03-07 10:42:00,48.2,34.5,30.06,SSW,199,1.0,1.0,59,0.00,,,0.00,Wunderground v.1.13,2013-03-07 18:42:00,
2013-03-07 10:47:00,47.6,33.1,30.07,South,170,1.0,1.0,57,0.00,,,0.00,Wunderground v.1.13,2013-03-07 18:47:00,
2013-03-07 10:52:00,48.3,35.9,30.06,SE,128,1.0,1.0,62,0.00,,,0.00,Wunderground v.1.13,2013-03-07 18:52:00,
2013-03-07 11:02:00,49.2,34.2,30.06,West,272,0.0,8.0,56,0.00,,,0.00,Wunderground v.1.13,2013-03-07 19:02:00,
2013-03-07 11:12:00,48.9,35.2,30.06,SE,136,0.0,8.0,59,0.00,,,0.00,Wunderground v.1.13,2013-03-07 19:12:00,
2013-03-07 11:22:00,48.9,34.3,30.07,SSW,211,0.0,8.0,57,0.00,,,0.00,Wunderground v.1.13,2013-03-07 19:22:00,
2013-03-07 11:37:00,50.7,34.6,30.06,SSW,209,1.0,8.0,54,0.00,,,0.00,Wunderground v.1.13,2013-03-07 19:37:00,
2013-03-07 11:47:00,49.2,32.3,30.07,West,259,2.0,2.0,52,0.00,,,0.00,Wunderground v.1.13,2013-03-07 19:47:00,
2013-03-07 11:57:00,48.9,35.6,30.06,West,261,0.0,8.0,60,0.00,,,0.00,Wunderground v.1.13,2013-03-07 19:57:00,
2013-03-07 12:02:00,49.8,36.9,30.06,SSW,213,1.0,8.0,61,0.00,,,0.00,Wunderground v.1.13,2013-03-07 20:02:00,
2013-03-07 12:12:00,48.6,37.4,30.06,West,275,1.0,8.0,65,0.00,,,0.00,Wunderground v.1.13,2013-03-07 20:12:00,
2013-03-07 12:17:00,48.5,37.3,30.06,West,281,1.0,8.0,65,0.00,,,0.00,Wunderground v.1.13,2013-03-07 20:17:00,
2013-03-07 12:27:00,47.6,36.4,30.06,West,263,2.0,8.0,65,0.00,,,0.00,Wunderground v.1.13,2013-03-07 20:27:00,
2013-03-07 12:37:00,47.6,36.4,30.05,West,280,3.0,3.0,65,0.00,,,0.00,Wunderground v.1.13,2013-03-07 20:37:00,
2013-03-07 12:47:00,48.8,36.8,30.05,West,264,2.0,2.0,63,0.00,,,0.00,Wunderground v.1.13,2013-03-07 20:47:00,
2013-03-07 12:52:00,49.1,36.2,30.04,West,277,3.0,3.0,61,0.00,,,0.00,Wunderground v.1.13,2013-03-07 20:52:00,
2013-03-07 12:57:00,49.6,37.5,30.04,WNW,285,2.0,8.0,63,0.00,,,0.00,Wunderground v.1.13,2013-03-07 20:57:00,
2013-03-07 13:07:00,48.9,37.6,30.04,West,277,2.0,2.0,65,0.00,,,0.00,Wunderground v.1.13,2013-03-07 21:07:00,
2013-03-07 13:17:00,49.1,35.8,30.04,WNW,302,1.0,1.0,60,0.00,,,0.00,Wunderground v.1.13,2013-03-07 21:17:00,
2013-03-07 13:27:00,49.8,36.5,30.04,West,266,1.0,1.0,60,0.00,,,0.00,Wunderground v.1.13,2013-03-07 21:27:00,
2013-03-07 13:32:00,49.9,38.6,30.03,WNW,286,0.0,0.0,65,0.00,,,0.00,Wunderground v.1.13,2013-03-07 21:32:00,
2013-03-07 13:42:00,51.0,37.2,30.02,WSW,243,1.0,3.0,59,0.00,,,0.00,Wunderground v.1.13,2013-03-07 21:42:00,
2013-03-07 13:52:00,50.2,35.1,30.03,West,264,1.0,1.0,56,0.00,,,0.00,Wunderground v.1.13,2013-03-07 21:52:00,
2013-03-07 13:57:00,50.1,36.3,30.03,SW,232,1.0,7.0,59,0.00,,,0.00,Wunderground v.1.13,2013-03-07 21:57:00,
2013-03-07 14:02:00,50.4,35.3,30.03,West,275,1.0,7.0,56,0.00,,,0.00,Wunderground v.1.13,2013-03-07 22:02:00,
2013-03-07 14:07:00,49.8,34.7,30.03,West,276,1.0,7.0,56,0.00,,,0.00,Wunderground v.1.13,2013-03-07 22:07:00,
2013-03-07 14:17:00,48.9,35.6,30.03,West,259,1.0,7.0,60,0.00,,,0.00,Wunderground v.1.13,2013-03-07 22:17:00,
2013-03-07 14:22:00,48.5,34.8,30.03,WNW,290,1.0,1.0,59,0.00,,,0.00,Wunderground v.1.13,2013-03-07 22:22:00,
2013-03-07 14:32:00,48.5,34.4,30.03,WSW,244,0.0,7.0,58,0.00,,,0.00,Wunderground v.1.13,2013-03-07 22:32:00,
2013-03-07 14:42:00,49.1,34.9,30.03,West,277,1.0,1.0,58,0.00,,,0.00,Wunderground v.1.13,2013-03-07 22:42:00,
2013-03-07 14:47:00,49.1,35.4,30.03,West,265,0.0,7.0,59,0.00,,,0.00,Wunderground v.1.13,2013-03-07 22:47:00,
2013-03-07 14:57:00,49.4,36.1,30.03,West,270,1.0,1.0,60,0.00,,,0.00,Wunderground v.1.13,2013-03-07 22:57:00,
2013-03-07 15:07:00,49.1,34.9,30.03,NW,323,1.0,7.0,58,0.00,,,0.00,Wunderground v.1.13,2013-03-07 23:07:00,
2013-03-07 15:17:00,48.6,35.7,30.02,WSW,252,0.0,7.0,61,0.00,,,0.00,Wunderground v.1.13,2013-03-07 23:17:00,
2013-03-07 15:22:00,48.5,35.7,30.03,WSW,252,0.0,7.0,61,0.00,,,0.00,Wunderground v.1.13,2013-03-07 23:22:00,
2013-03-07 15:32:00,47.6,34.8,30.03,West,267,1.0,1.0,61,0.00,,,0.00,Wunderground v.1.13,2013-03-07 23:32:00,
2013-03-07 15:37:00,47.3,35.7,30.03,West,267,0.0,7.0,64,0.00,,,0.00,Wunderground v.1.13,2013-03-07 23:37:00,
2013-03-07 15:47:00,46.7,37.1,30.03,West,267,0.0,7.0,69,0.00,,,0.00,Wunderground v.1.13,2013-03-07 23:47:00,
2013-03-07 15:57:00,46.4,37.1,30.04,West,267,0.0,7.0,70,0.00,,,0.00,Wunderground v.1.13,2013-03-07 23:57:00,
2013-03-07 16:07:00,46.2,36.2,30.04,West,267,0.0,7.0,68,0.00,,,0.00,Wunderground v.1.13,2013-03-08 00:07:00,
2013-03-07 16:12:00,46.2,37.7,30.04,West,267,0.0,7.0,72,0.00,,,0.00,Wunderground v.1.13,2013-03-08 00:12:00,
2013-03-07 16:22:00,45.7,37.5,30.04,East,95,1.0,7.0,73,0.00,,,0.00,Wunderground v.1.13,2013-03-08 00:22:00,
2013-03-07 16:27:00,45.2,37.1,30.04,East,88,3.0,3.0,73,0.00,,,0.00,Wunderground v.1.13,2013-03-08 00:27:00,
2013-03-07 16:32:00,44.9,37.8,30.04,ENE,78,2.0,7.0,76,0.00,,,0.00,Wunderground v.1.13,2013-03-08 00:32:00,
2013-03-07 16:42:00,44.6,38.8,30.04,ENE,78,3.0,7.0,80,0.00,,,0.00,Wunderground v.1.13,2013-03-08 00:42:00,
2013-03-07 16:47:00,44.3,38.2,30.04,ESE,106,4.0,7.0,79,0.00,,,0.00,Wunderground v.1.13,2013-03-08 00:47:00,
2013-03-07 16:57:00,43.8,38.0,30.04,East,88,5.0,5.0,80,0.00,,,0.00,Wunderground v.1.13,2013-03-08 00:57:00,
2013-03-07 17:07:00,43.3,37.5,30.05,East,88,5.0,5.0,80,0.00,,,0.00,Wunderground v.1.13,2013-03-08 01:07:00,
2013-03-07 17:16:00,43.1,38.0,30.05,ESE,102,3.0,3.0,82,0.00,,,0.00,Wunderground v.1.13,2013-03-08 01:16:00,
2013-03-07 17:22:00,42.9,37.8,30.04,East,99,3.0,7.0,82,0.00,,,0.00,Wunderground v.1.13,2013-03-08 01:22:00,
2013-03-07 17:27:00,42.8,37.7,30.04,East,100,4.0,4.0,82,0.00,,,0.00,Wunderground v.1.13,2013-03-08 01:27:00,
2013-03-07 17:37:00,42.5,37.4,30.04,East,88,5.0,5.0,82,0.00,,,0.00,Wunderground v.1.13,2013-03-08 01:37:00,
2013-03-07 17:42:00,42.5,37.7,30.04,East,79,5.0,7.0,83,0.00,,,0.00,Wunderground v.1.13,2013-03-08 01:42:00,
2013-03-07 17:52:00,42.3,37.8,30.05,East,90,4.0,7.0,84,0.00,,,0.00,Wunderground v.1.13,2013-03-08 01:52:00,
2013-03-07 18:02:00,42.2,38.0,30.05,East,88,5.0,5.0,85,0.00,,,0.00,Wunderground v.1.13,2013-03-08 02:02:00,
2013-03-07 18:12:00,42.1,37.9,30.05,East,88,4.0,4.0,85,0.00,,,0.00,Wunderground v.1.13,2013-03-08 02:12:00,
2013-03-07 18:22:00,41.9,38.0,30.04,East,88,3.0,7.0,86,0.00,,,0.00,Wunderground v.1.13,2013-03-08 02:22:00,
2013-03-07 18:27:00,41.8,38.2,30.04,East,88,3.0,3.0,87,0.00,,,0.00,Wunderground v.1.13,2013-03-08 02:27:00,
2013-03-07 18:37:00,41.8,38.2,30.04,East,101,2.0,2.0,87,0.00,,,0.00,Wunderground v.1.13,2013-03-08 02:37:00,
2013-03-07 18:42:00,41.6,38.3,30.04,East,101,2.0,2.0,88,0.00,,,0.00,Wunderground v.1.13,2013-03-08 02:42:00,
2013-03-07 18:52:00,41.5,38.5,30.04,East,101,1.0,7.0,89,0.00,,,0.00,Wunderground v.1.13,2013-03-08 02:52:00,
2013-03-07 19:02:00,41.3,38.0,30.04,East,101,0.0,7.0,88,0.00,,,0.00,Wunderground v.1.13,2013-03-08 03:02:00,
2013-03-07 19:07:00,41.3,38.0,30.05,East,101,0.0,7.0,88,0.00,,,0.00,Wunderground v.1.13,2013-03-08 03:07:00,
2013-03-07 19:17:00,41.2,38.2,30.04,East,80,3.0,3.0,89,0.00,,,0.00,Wunderground v.1.13,2013-03-08 03:17:00,
2013-03-07 19:27:00,41.2,38.2,30.04,East,80,4.0,7.0,89,0.00,,,0.00,Wunderground v.1.13,2013-03-08 03:27:00,
2013-03-07 19:32:00,41.1,38.1,30.04,East,80,3.0,3.0,89,0.00,,,0.00,Wunderground v.1.13,2013-03-08 03:32:00,
2013-03-07 19:41:00,40.8,37.8,30.04,East,80,3.0,7.0,89,0.00,,,0.00,Wunderground v.1.13,2013-03-08 03:41:00,
2013-03-07 19:47:00,40.6,37.6,30.04,East,80,3.0,3.0,89,0.00,,,0.00,Wunderground v.1.13,2013-03-08 03:47:00,
2013-03-07 19:52:00,40.6,37.6,30.04,East,80,4.0,7.0,89,0.00,,,0.00,Wunderground v.1.13,2013-03-08 03:52:00,
2013-03-07 20:02:00,40.6,37.0,30.04,East,80,4.0,7.0,87,0.00,,,0.00,Wunderground v.1.13,2013-03-08 04:02:00,
2013-03-07 20:12:00,40.6,37.3,30.03,East,80,5.0,5.0,88,0.00,,,0.00,Wunderground v.1.13,2013-03-08 04:12:00,
2013-03-07 20:22:00,40.3,37.3,30.02,ENE,78,1.0,1.0,89,0.00,,,0.00,Wunderground v.1.13,2013-03-08 04:22:00,
2013-03-07 20:32:00,40.3,37.0,30.02,East,86,0.0,7.0,88,0.00,,,0.00,Wunderground v.1.13,2013-03-08 04:32:00,
2013-03-07 20:37:00,40.2,36.9,30.01,East,85,0.0,7.0,88,0.00,,,0.00,Wunderground v.1.13,2013-03-08 04:37:00,
2013-03-07 20:47:00,40.2,36.9,30.01,NE,53,1.0,1.0,88,0.00,,,0.00,Wunderground v.1.13,2013-03-08 04:47:00,
2013-03-07 20:57:00,39.9,36.9,30.02,ENE,75,2.0,7.0,89,0.00,,,0.00,Wunderground v.1.13,2013-03-08 04:57:00,
2013-03-07 21:02:00,39.6,36.6,30.02,ENE,74,2.0,7.0,89,0.00,,,0.00,Wunderground v.1.13,2013-03-08 05:02:00,
2013-03-07 21:07:00,39.5,36.5,30.02,ENE,74,2.0,7.0,89,0.00,,,0.00,Wunderground v.1.13,2013-03-08 05:07:00,
2013-03-07 21:17:00,39.5,36.8,30.01,NE,48,2.0,7.0,90,0.00,,,0.00,Wunderground v.1.13,2013-03-08 05:17:00,
2013-03-07 21:22:00,39.8,36.8,30.01,NE,37,3.0,3.0,89,0.00,,,0.00,Wunderground v.1.13,2013-03-08 05:22:00,
2013-03-07 21:37:00,41.2,35.8,30.01,NNE,30,4.0,7.0,81,0.00,,,0.00,Wunderground v.1.13,2013-03-08 05:37:00,
2013-03-07 21:47:00,41.9,35.5,30.01,North,360,4.0,4.0,78,0.00,,,0.00,Wunderground v.1.13,2013-03-08 05:47:00,
2013-03-07 21:52:00,41.8,35.4,30.01,NNE,30,4.0,4.0,78,0.00,,,0.00,Wunderground v.1.13,2013-03-08 05:52:00,
2013-03-07 22:02:00,41.2,35.5,30.00,NNE,30,0.0,7.0,80,0.00,,,0.00,Wunderground v.1.13,2013-03-08 06:02:00,
2013-03-07 22:07:00,40.8,35.1,30.01,NE,42,0.0,7.0,80,0.00,,,0.00,Wunderground v.1.13,2013-03-08 06:07:00,
2013-03-07 22:17:00,40.2,35.4,30.00,NE,46,1.0,7.0,83,0.00,,,0.00,Wunderground v.1.13,2013-03-08 06:17:00,
2013-03-07 22:27:00,39.9,35.8,30.00,NE,53,1.0,1.0,85,0.00,,,0.00,Wunderground v.1.13,2013-03-08 06:27:00,
2013-03-07 22:32:00,39.8,35.7,30.00,NE,46,1.0,7.0,85,0.00,,,0.00,Wunderground v.1.13,2013-03-08 06:32:00,
2013-03-07 22:42:00,39.6,35.8,30.00,NE,43,1.0,7.0,86,0.00,,,0.00,Wunderground v.1.13,2013-03-08 06:42:00,
2013-03-07 22:52:00,39.6,35.8,29.99,NE,44,2.0,7.0,86,0.00,,,0.00,Wunderground v.1.13,2013-03-08 06:52:00,
2013-03-07 22:57:00,39.8,35.7,29.99,NE,43,2.0,2.0,85,0.00,,,0.00,Wunderground v.1.13,2013-03-08 06:57:00,
2013-03-07 23:07:00,39.2,35.4,29.99,NE,47,0.0,7.0,86,0.00,,,0.00,Wunderground v.1.13,2013-03-08 07:07:00,
2013-03-07 23:12:00,39.1,35.3,29.99,NE,47,1.0,1.0,86,0.00,,,0.00,Wunderground v.1.13,2013-03-08 07:12:00,
2013-03-07 23:17:00,39.1,35.3,29.99,NE,50,1.0,7.0,86,0.00,,,0.00,Wunderground v.1.13,2013-03-08 07:17:00,
2013-03-07 23:27:00,39.1,35.3,29.99,East,83,1.0,7.0,86,0.00,,,0.00,Wunderground v.1.13,2013-03-08 07:27:00,
2013-03-07 23:32:00,39.1,35.3,29.99,NE,53,1.0,1.0,86,0.00,,,0.00,Wunderground v.1.13,2013-03-08 07:32:00,
2013-03-07 23:37:00,39.1,35.3,29.99,NE,53,0.0,7.0,86,0.00,,,0.00,Wunderground v.1.13,2013-03-08 07:37:00,
2013-03-07 23:47:00,39.2,35.1,29.99,NE,52,1.0,7.0,85,0.00,,,0.00,Wunderground v.1.13,2013-03-08 07:47:00,
2013-03-07 23:52:00,39.2,35.1,29.98,NE,53,1.0,7.0,85,0.00,,,0.00,Wunderground v.1.13,2013-03-08 07:52:00,